GFSSW_con_sbcape_132.txt.gz
CAPE
8 7 4 2 2 2 3 3 3 4 5 4 3 4 6 11 4 0 0 0 0 0 0 0 0 0 0 0 0 0 0 0 0 0 0 0 0 0 0 0 0 0 0 0 29
9 9 8 7 6 4 2 0 0 0 2 3 3 9 9 10 0 0 0 0 0 0 0 0 0 0 0 0 0 0 0 0 0 0 0 0 0 0 0 0 0 0 0 0 61
10 9 8 7 5 5 7 7 5 3 3 3 2 6 14 2 0 0 0 0 0 0 0 0 0 0 0 0 0 0 0 0 0 0 0 0 0 0 0 0 0 0 0 0 0
10 7 5 3 4 3 1 1 2 7 12 17 10 15 8 0 0 0 0 0 0 0 0 0 0 0 0 0 0 0 0 0 0 0 0 0 0 0 0 0 0 0 0 0 0
5 4 1 1 1 1 0 1 1 3 5 12 8 19 11 0 0 0 0 0 0 0 0 0 0 0 0 0 0 0 0 0 0 0 0 0 0 0 0 0 0 0 0 0 10
11 2 1 2 3 2 1 0 0 2 8 10 8 13 6 0 0 0 0 0 0 0 0 0 0 0 0 0 0 0 0 0 0 0 0 0 0 0 0 0 0 0 0 0 0
26 10 7 6 4 8 9 3 0 4 1 6 11 15 1 0 0 0 0 0 0 0 0 0 0 0 0 0 0 0 0 0 0 0 0 0 0 0 0 0 0 0 0 0 0
20 14 6 6 5 6 15 10 9 5 0 4 8 6 0 0 0 0 0 0 0 0 0 0 0 0 0 0 0 0 0 0 0 0 0 0 0 0 0 0 0 0 0 0 0
17 11 10 12 14 12 11 4 2 0 0 0 9 5 0 0 0 0 0 0 0 0 0 0 0 0 0 0 0 0 0 0 0 0 0 0 0 0 0 0 0 0 0 0 0
17 12 10 11 14 6 3 0 0 0 0 1 13 2 0 0 0 0 0 0 0 0 0 0 0 0 0 0 0 0 0 0 0 0 0 0 0 0 0 0 0 0 0 0 0
13 9 10 6 3 0 0 0 0 0 0 0 0 12 0 0 0 0 0 0 0 2 0 0 0 0 0 0 0 0 0 0 0 0 0 0 0 0 0 0 0 0 0 0 0
7 7 8 1 0 0 0 1 2 4 0 0 0 0 0 0 0 0 0 0 0 2 16 4 2 0 0 0 0 0 0 0 0 0 0 0 0 0 0 0 0 0 0 0 0
6 3 2 0 0 0 1 0 0 0 0 0 0 32 44 35 36 34 13 0 0 0 29 59 6 0 0 0 0 0 0 0 0 0 0 1 0 0 0 0 0 0 0 0 0
5 2 0 1 0 0 0 1 0 0 2 57 66 13 9 12 21 58 91 56 3 0 75 84 36 30 30 1 4 2 0 0 0 0 0 4 10 0 0 0 0 0 0 0 0
3 1 0 0 0 0 0 0 0 0 54 0 1 0 4 14 13 41 19 59 127 52 58 3 72 72 130 37 9 10 0 0 0 0 0 0 57 0 0 0 0 0 0 0 0
2 0 0 0 0 0 0 0 0 34 25 10 0 0 43 30 125 187 73 24 50 56 25 68 30 33 20 19 62 20 22 9 11 7 36 0 38 11 1 0 0 0 0 0 0
1 0 0 0 0 0 0 1 48 67 4 0 0 0 1 19 70 56 207 55 0 62 60 0 0 6 68 75 89 49 25 74 60 44 52 7 1 5 0 0 0 0 0 0 0
1 0 0 0 0 0 0 21 5 4 3 0 0 0 7 12 7 29 81 9 15 13 242 251 137 116 11 46 121 162 105 128 54 49 15 11 40 0 0 0 0 0 0 0 0
0 0 0 0 0 0 0 1 3 2 0 0 0 0 0 2 22 24 0 2 44 0 12 73 41 8 53 43 117 126 113 68 165 101 104 34 19 2 0 0 3 0 0 0 0
0 0 0 0 0 0 7 0 3 3 1 10 11 13 16 17 17 30 38 119 216 76 44 45 18 20 14 33 188 143 121 133 410 301 33 47 183 10 0 9 29 5 0 0 0
0 0 0 0 0 14 33 14 8 5 16 16 23 19 21 23 13 27 34 77 158 40 40 42 52 3 13 22 163 45 164 135 198 135 60 68 41 18 7 0 35 87 2 0 0
0 0 0 0 1 7 6 5 2 23 20 1 11 18 39 43 32 28 36 49 49 19 14 53 43 13 0 0 41 64 213 187 245 70 2 19 31 185 23 165 141 384 995 1266 1188
2 0 0 0 0 0 1 5 15 22 3 1 12 10 13 18 21 49 24 17 5 27 4 25 37 12 2 4 139 206 171 192 419 224 41 7 79 158 250 141 1279 1396 1174 785 832
3 0 0 0 0 4 6 8 18 18 0 2 6 15 30 53 18 13 12 6 7 4 1 18 37 24 13 13 8 47 97 235 105 130 113 0 19 0 154 1116 1370 892 764 783 898
0 0 5 0 0 5 3 28 11 24 20 21 19 18 25 16 32 8 8 8 1 2 14 41 33 30 48 34 22 46 46 20 96 21 99 94 22 0 283 719 525 415 720 760 754
8 26 17 17 0 3 11 6 15 14 41 18 28 29 23 7 21 8 35 16 22 1 10 4 17 6 4 21 55 45 74 50 22 13 19 1 26 170 95 424 573 656 851 899 659
39 0 8 6 4 0 9 8 17 32 3 15 30 22 31 36 29 33 27 21 18 8 7 19 25 23 4 8 0 1 4 13 30 125 138 13 0 0 64 300 511 614 187 5 0

GFSSW_con_sbcape_135.txt.gz
CAPE
6 5 3 2 2 1 3 3 3 2 2 3 5 6 7 8 10 0 0 0 0 0 0 0 0 0 0 0 0 0 0 0 0 0 0 0 0 0 0 0 0 0 0 0 461
8 6 7 5 3 2 1 0 0 0 1 4 6 8 7 9 0 0 0 0 0 0 0 0 0 0 0 0 0 0 0 0 0 0 0 0 0 0 0 0 0 0 0 103 864
11 8 4 1 2 1 2 2 3 4 4 2 4 6 10 0 0 0 0 0 0 0 0 0 0 0 0 0 0 0 0 0 0 0 0 0 0 0 0 0 0 0 0 0 72
4 3 0 0 0 0 1 1 0 2 6 13 7 15 11 0 0 0 0 0 0 0 0 0 0 0 0 0 0 0 0 0 0 0 0 0 0 0 0 0 0 0 0 0 0
0 0 0 2 2 1 1 0 0 5 10 13 6 13 7 0 0 0 0 0 0 0 0 0 0 0 0 0 0 0 0 0 0 0 0 0 0 0 0 0 0 0 0 0 0
6 5 4 3 6 8 6 4 5 5 4 10 12 21 6 0 0 0 0 0 0 0 0 0 0 0 0 0 0 0 0 0 0 0 0 0 0 0 0 0 0 0 0 0 0
12 11 6 7 15 14 19 13 10 7 1 7 5 17 0 0 0 0 0 0 0 0 0 0 0 0 0 0 0 0 0 0 0 0 0 0 0 0 0 0 0 0 0 0 0
15 13 12 14 8 6 11 5 2 0 1 4 4 3 0 0 0 0 0 0 0 0 0 0 0 0 0 0 0 0 0 0 0 0 0 0 0 0 0 0 0 0 0 0 0
12 8 11 13 7 5 3 0 0 0 0 0 0 0 0 0 0 0 0 0 0 0 0 0 0 0 0 0 0 0 0 0 0 0 0 0 0 0 0 0 0 0 0 0 0
10 10 8 7 3 2 0 0 0 0 0 0 2 0 0 0 0 0 0 0 0 0 0 0 0 0 0 0 0 0 0 0 0 0 0 0 0 0 0 0 0 0 0 0 0
12 10 6 3 0 0 0 0 0 0 0 0 0 0 0 0 0 0 0 0 0 0 0 0 0 0 0 0 0 0 0 0 0 0 0 0 0 0 0 0 0 0 0 0 0
10 9 4 3 0 0 0 0 0 0 0 0 0 0 0 0 0 12 3 0 0 0 0 0 0 0 0 0 0 0 0 0 0 0 0 0 0 0 0 0 0 0 0 0 0
6 6 3 3 0 0 0 0 0 0 0 0 0 0 0 10 3 3 1 5 2 0 0 0 0 0 0 0 0 0 0 0 0 0 0 0 0 0 0 0 0 0 0 0 0
4 4 1 6 0 0 0 0 0 0 0 0 0 0 0 3 2 5 1 0 9 0 0 0 0 2 1 11 0 0 0 0 0 0 0 0 0 0 0 0 0 0 0 0 0
3 3 2 0 0 0 0 0 0 0 0 0 0 0 0 1 83 109 12 0 11 24 13 3 44 40 18 13 11 1 0 0 0 0 0 0 0 0 0 0 0 0 0 0 0
2 0 1 0 0 0 0 0 0 0 0 0 0 0 0 0 1 40 16 0 2 0 0 11 63 22 12 3 11 0 3 6 0 0 0 0 0 0 0 0 0 0 0 0 0
0 0 0 0 0 0 0 0 0 0 0 0 0 0 0 0 0 15 1 2 10 3 1 35 27 9 13 0 5 9 0 3 10 0 0 0 0 0 0 0 0 0 0 0 0
0 0 0 0 0 0 0 0 0 0 0 0 0 0 0 0 0 0 0 2 6 6 11 126 38 3 8 0 25 75 20 8 50 0 0 0 0 0 0 0 0 0 0 0 0
0 0 0 0 0 0 0 0 0 1 0 0 0 0 0 0 7 6 0 0 9 6 26 19 22 14 21 4 0 72 9 4 11 1 0 0 0 0 0 0 0 0 0 0 0
0 0 0 0 0 0 0 0 0 0 0 3 0 0 0 0 10 31 0 20 34 0 0 20 5 0 11 0 1 8 30 29 71 52 10 19 3 0 0 0 0 0 0 0 0
0 0 0 0 0 0 14 0 0 0 19 4 0 0 1 5 4 6 2 0 14 0 0 31 15 0 0 3 12 15 7 65 11 24 88 13 23 2 0 0 0 0 0 0 39
0 0 0 0 0 0 0 0 0 12 0 0 0 6 6 5 6 15 8 15 18 35 15 19 1 4 0 0 0 0 0 0 26 0 20 13 0 6 25 0 0 15 131 363 1269
1 0 0 0 0 0 0 0 0 16 0 5 2 9 12 53 24 20 0 0 9 4 9 7 1 0 0 4 20 14 4 8 2 82 4 0 0 1 0 0 158 702 1137 1066 937
0 0 0 0 0 0 0 0 5 0 0 0 12 14 14 0 3 8 5 5 6 2 12 23 3 0 0 0 0 14 6 77 27 10 0 1 7 1 0 31 1113 1124 1040 912 903
0 0 0 0 0 0 0 1 0 0 1 0 4 5 29 0 10 8 7 10 2 5 1 16 13 4 5 17 3 4 10 40 44 0 15 30 31 13 49 0 872 1239 1247 986 711
0 7 16 4 1 0 0 0 0 0 9 21 14 18 17 4 5 4 17 12 15 1 0 0 21 0 0 0 0 1 35 63 97 1 12 22 31 17 0 0 173 780 907 705 441
14 27 2 5 5 5 0 0 0 5 0 7 4 5 9 26 21 11 7 2 5 1 0 10 7 14 2 0 0 0 0 0 19 39 12 3 4 9 0 0 7 360 311 171 82

GFSSW_con_sbcape_138.txt.gz
CAPE
7 5 3 1 0 0 0 1 2 4 6 7 8 10 10 6 8 0 0 0 0 0 0 0 0 0 0 0 0 0 0 0 0 0 0 0 0 0 0 0 0 0 0 1060 1643
7 5 4 2 1 2 3 3 4 1 1 4 8 9 9 1 0 0 0 0 0 0 0 0 0 0 0 0 0 0 0 0 0 0 0 0 0 0 0 0 0 0 0 516 1570
3 2 1 0 0 1 2 3 5 8 12 16 9 9 10 0 0 0 0 0 0 0 0 0 0 0 0 0 0 0 0 0 0 0 0 0 0 0 0 0 0 0 56 542 1356
1 0 0 0 0 3 2 3 7 6 7 7 10 10 23 0 0 0 0 0 0 0 0 0 0 0 0 0 0 0 0 0 0 0 0 0 0 0 0 0 0 0 0 758 1134
2 1 1 3 6 5 4 4 1 0 8 9 5 9 0 0 0 0 0 0 0 0 0 0 0 0 0 0 0 0 0 0 0 0 0 0 0 0 0 0 0 0 0 0 110
12 6 8 10 9 6 6 6 3 1 1 8 6 20 2 0 0 0 0 0 0 0 0 0 0 0 0 0 0 0 0 0 0 0 0 0 0 0 0 0 0 0 0 0 0
13 8 13 11 9 5 4 1 1 2 0 5 2 1 0 0 0 0 0 0 0 0 0 0 0 0 0 0 0 0 0 0 0 0 0 0 0 0 0 0 0 0 0 0 0
17 15 11 9 4 3 3 1 0 0 0 1 1 0 0 0 0 0 0 0 0 0 0 0 0 0 0 0 0 0 0 0 0 0 0 0 0 0 0 0 0 0 0 0 0
14 10 12 9 4 2 0 0 0 0 0 0 0 0 0 0 0 0 0 0 0 0 0 0 0 0 0 0 0 0 0 0 0 0 0 0 0 0 0 0 0 0 0 0 0
12 13 10 6 4 0 0 0 0 0 0 0 0 0 0 0 0 0 0 0 0 0 0 0 0 0 0 0 0 0 0 0 0 0 0 0 0 0 0 0 0 0 0 0 0
12 11 9 4 0 0 0 0 0 0 0 0 0 0 0 0 0 0 0 0 0 0 0 0 0 0 0 0 0 0 0 0 0 0 0 0 0 0 0 0 0 0 0 0 0
4 9 10 4 0 0 0 0 0 0 0 0 0 0 0 0 0 0 0 0 0 0 0 0 0 0 0 0 0 0 0 0 0 0 0 0 0 0 0 0 0 0 0 0 0
8 4 8 6 0 0 0 0 0 0 0 0 0 0 0 0 0 16 1 0 0 0 0 0 0 0 0 0 0 0 0 0 0 0 0 0 0 0 0 0 0 0 0 0 0
8 4 4 5 0 0 0 0 0 0 0 0 0 0 0 0 0 15 43 0 0 0 0 0 0 0 0 0 1 0 0 0 0 0 0 0 0 0 0 0 0 0 0 0 0
6 4 1 1 0 0 0 0 0 0 0 0 0 0 0 0 0 0 0 30 0 0 0 0 0 6 0 0 0 0 0 0 0 0 0 0 0 0 0 0 0 0 0 0 0
5 2 6 0 0 0 0 0 0 0 0 0 0 0 0 0 0 0 0 0 0 1 0 0 0 3 19 12 25 3 33 0 0 0 0 0 0 0 0 0 0 0 0 0 0
1 1 1 0 0 0 0 0 0 0 0 0 0 0 0 0 0 0 0 0 2 1 1 0 7 7 10 0 1 28 17 27 28 9 3 0 0 0 0 0 0 0 0 0 0
1 0 0 0 0 0 0 0 0 0 0 0 0 0 0 0 0 0 0 0 5 14 27 0 5 44 53 27 0 0 8 53 25 0 0 0 3 0 0 0 0 0 0 0 0
0 0 0 0 0 0 0 0 0 0 0 0 0 0 0 0 0 0 0 0 21 22 11 25 14 0 0 0 5 0 9 0 7 3 13 0 0 0 0 0 0 0 0 0 0
0 0 0 0 0 0 0 0 0 0 13 0 0 0 0 0 1 0 0 3 4 1 7 7 10 0 11 0 3 0 2 3 22 7 2 0 0 0 0 0 0 0 0 0 0
0 0 0 0 0 0 0 0 0 0 18 19 3 2 0 3 4 8 2 0 2 0 0 10 4 0 0 0 0 10 2 2 0 4 8 0 0 0 0 0 0 0 0 0 0
0 0 0 0 0 0 0 0 0 0 1 6 15 11 9 6 20 3 16 30 0 21 7 0 4 0 0 0 0 0 1 4 3 0 0 0 0 0 0 0 0 0 0 0 0
0 0 0 0 0 0 0 0 0 2 0 7 6 6 32 25 9 12 5 1 5 0 21 8 0 0 0 0 19 5 5 9 3 0 10 0 0 27 0 0 0 0 0 665 1325
0 0 0 0 0 0 0 0 0 0 0 0 14 9 40 27 11 36 14 2 8 37 70 21 49 14 0 0 0 0 0 8 14 1 2 0 0 33 11 0 0 0 899 1008 1198
0 0 0 0 0 0 0 0 0 0 0 1 7 25 8 1 1 12 6 25 27 26 7 3 34 12 7 11 8 10 3 0 3 5 1 0 20 116 34 17 0 3 1096 1030 1195
0 1 0 6 0 0 0 0 0 0 4 0 10 3 1 0 2 1 17 5 5 1 0 1 0 0 0 0 0 0 0 0 0 14 0 36 42 229 141 87 0 81 1060 998 948
0 0 19 2 3 1 0 1 9 4 0 0 2 1 3 12 9 8 3 3 8 5 4 4 6 8 0 0 1 0 19 13 0 31 0 0 8 15 0 0 0 0 3 752 400

GFSSW_con_sbcape_141.txt.gz
CAPE
8 8 8 8 6 6 5 4 3 4 6 10 6 6 5 1 2 0 0 0 0 0 0 0 0 0 0 0 0 0 0 0 0 0 0 0 0 0 0 0 0 0 0 471 1636
4 4 4 5 7 8 9 10 10 9 5 1 3 4 4 0 0 0 0 0 0 0 0 0 0 0 0 0 0 0 0 0 0 0 0 0 0 0 0 0 0 0 0 1121 1747
1 2 2 3 4 4 5 4 3 6 4 5 6 6 1 0 0 0 0 0 0 0 0 0 0 0 0 0 0 0 0 0 0 0 0 0 0 0 0 0 0 0 0 1661 1763
2 2 3 5 5 4 1 1 2 7 5 6 5 4 2 0 0 0 0 0 0 0 0 0 0 0 0 0 0 0 0 0 0 0 0 0 0 0 0 0 0 0 0 0 1792
7 10 12 6 5 3 1 0 0 0 6 3 7 6 0 0 0 0 0 0 0 0 0 0 0 0 0 0 0 0 0 0 0 0 0 0 0 0 0 0 0 0 0 0 1847
10 13 13 9 5 4 3 1 1 1 2 2 1 6 0 0 0 0 0 0 0 0 0 0 0 0 0 0 0 0 0 0 0 0 0 0 0 0 0 0 0 0 0 0 1582
13 14 16 10 5 3 2 0 0 0 0 2 1 1 0 0 0 0 0 0 0 0 0 0 0 0 0 0 0 0 0 0 0 0 0 0 0 0 0 0 0 0 0 0 0
13 19 10 6 4 1 1 0 0 0 0 0 1 0 0 0 0 0 0 0 0 0 0 0 0 0 0 0 0 0 0 0 0 0 0 0 0 0 0 0 0 0 0 0 0
13 13 8 4 1 0 0 0 0 0 0 0 0 0 0 0 0 0 0 0 0 0 0 0 0 0 0 0 0 0 0 0 0 0 0 0 0 0 0 0 0 0 0 0 0
11 12 10 6 2 1 0 0 0 0 0 0 0 0 0 0 0 0 0 0 0 0 0 0 0 0 0 0 0 0 0 0 0 0 0 0 0 0 0 0 0 0 0 0 0
5 9 7 4 2 1 0 0 0 0 0 0 0 0 0 0 0 0 0 0 0 0 0 0 0 0 0 0 0 0 0 0 0 0 0 0 0 0 0 0 0 0 0 0 0
3 4 5 5 2 0 0 0 0 0 0 0 0 0 0 0 0 0 0 0 0 0 0 0 0 0 0 0 0 0 0 0 0 0 0 0 0 0 0 0 0 0 0 0 0
11 5 7 5 1 0 0 0 0 0 0 0 0 0 0 0 0 0 0 0 0 0 0 0 0 0 0 0 0 0 0 0 0 0 0 0 0 0 0 0 0 0 0 0 0
8 7 6 4 0 0 0 0 0 0 0 0 0 0 0 0 0 0 0 0 0 0 0 0 0 0 0 0 0 0 0 0 0 0 0 0 0 0 0 0 0 0 0 0 0
7 4 10 3 0 0 0 0 0 0 0 0 0 0 0 0 0 0 0 0 0 0 0 0 0 0 0 0 0 0 0 3 5 0 0 0 0 0 0 0 0 0 0 0 0
6 2 7 0 0 0 0 0 0 0 0 0 0 0 0 0 0 0 0 0 0 0 0 0 0 0 5 44 43 0 29 19 0 0 2 0 0 0 0 0 0 0 0 0 0
1 0 0 0 0 0 0 0 0 0 0 0 0 0 0 0 0 0 0 0 4 11 0 0 0 0 0 17 36 39 38 5 1 0 3 0 0 0 0 0 0 0 0 0 0
1 0 0 0 0 0 0 0 0 0 0 0 0 0 0 0 0 0 0 0 0 21 1 1 0 33 40 29 20 2 26 8 0 0 0 0 15 0 0 0 0 0 0 0 0
0 0 0 0 0 0 0 0 0 0 0 1 0 0 0 0 0 1 0 0 21 22 1 1 0 0 0 3 18 3 0 0 7 15 0 0 0 0 0 0 0 0 0 0 0
0 0 0 0 0 0 0 0 0 0 0 1 0 1 1 0 0 13 0 0 7 1 0 0 4 0 0 0 0 1 7 3 22 1 13 0 0 0 0 0 0 0 0 0 0
0 0 0 0 0 0 0 0 0 0 1 0 0 2 0 17 13 8 0 2 1 2 0 0 5 0 0 0 0 13 30 8 0 0 0 0 0 0 0 0 0 0 0 0 0
0 0 0 0 0 0 0 0 0 0 0 0 0 2 15 39 41 5 2 8 1 6 11 9 21 8 0 0 0 7 19 6 21 0 0 0 0 0 0 0 0 0 0 0 0
1 0 0 0 0 0 0 0 0 0 0 0 0 16 21 37 4 38 13 0 2 14 25 1 2 4 0 1 20 2 8 12 5 7 1 0 0 0 0 0 0 0 0 3 0
0 0 0 0 0 0 2 0 0 0 0 0 0 6 23 23 7 27 23 6 10 28 89 56 7 2 0 0 0 0 0 4 30 24 0 0 0 0 6 6 0 0 0 371 554
0 0 0 0 0 0 0 1 0 2 5 0 3 2 4 0 5 14 6 20 22 21 22 4 26 4 15 10 1 2 1 0 18 20 43 0 0 0 0 87 98 20 0 948 1474
0 0 0 0 0 0 0 0 5 8 12 0 0 1 5 3 2 6 12 5 18 0 0 1 3 0 1 0 0 2 1 0 0 0 6 11 1 0 152 199 28 0 52 1242 1790
0 0 7 0 1 2 1 2 2 11 0 1 3 3 2 0 1 0 1 2 7 18 11 13 13 1 0 1 10 3 1 5 3 0 0 0 0 115 55 1 0 0 1 944 1321

GFSSW_con_sbcape_147.txt.gz
CAPE
9 12 12 10 11 8 6 6 1 2 3 5 6 2 3 4 4 0 0 0 0 0 0 0 0 0 0 0 0 0 0 0 0 0 0 0 0 0 0 0 0 0 0 0 498
9 8 7 6 5 6 7 4 2 5 4 4 5 5 2 5 0 0 0 0 0 0 0 0 0 0 0 0 0 0 0 0 0 0 0 0 0 0 0 0 0 0 0 625 1082
5 5 3 2 2 3 3 6 7 8 4 3 3 2 1 0 0 0 0 0 0 0 0 0 0 0 0 0 0 0 0 0 0 0 0 0 0 0 0 0 0 0 0 299 1222
6 6 3 2 1 0 1 1 2 7 4 2 1 0 0 0 0 0 0 0 0 0 0 0 0 0 0 0 0 0 0 0 0 0 0 0 0 0 0 0 0 0 0 0 316
5 4 4 2 1 1 2 2 2 3 2 0 0 0 0 0 0 0 0 0 0 0 0 0 0 0 0 0 0 0 0 0 0 0 0 0 0 0 0 0 0 0 0 0 0
3 3 4 2 1 1 2 4 3 2 1 0 0 0 0 0 0 0 0 0 0 0 0 0 0 0 0 0 0 0 0 0 0 0 0 0 0 0 0 0 0 0 0 0 0
4 3 3 2 1 1 2 3 1 0 0 0 0 0 0 0 0 0 0 0 0 0 0 0 0 0 0 0 0 0 0 0 0 0 0 0 0 0 0 0 0 0 0 0 0
1 4 3 2 1 0 0 2 0 0 0 0 0 0 0 0 0 0 0 0 0 0 0 0 0 0 0 0 0 0 0 0 0 0 0 0 0 0 0 0 0 0 0 0 0
4 7 3 3 3 1 0 0 0 0 0 0 0 0 0 0 0 0 0 0 0 0 0 0 0 0 0 0 8 3 0 0 0 0 0 0 0 0 0 0 0 0 0 0 0
6 6 8 6 5 2 1 0 0 0 0 0 0 0 0 0 0 0 0 0 0 0 0 0 0 0 0 0 0 1 21 0 0 0 0 0 0 0 0 0 0 0 0 0 0
1 6 10 15 6 3 0 0 0 0 0 0 0 0 0 0 0 0 0 0 0 0 0 0 0 0 0 0 0 0 22 43 26 0 0 0 0 0 0 0 0 0 0 0 0
1 2 10 4 3 0 0 0 0 0 0 0 0 0 0 0 0 0 0 0 0 0 0 0 0 0 0 0 0 0 2 4 15 2 0 0 0 0 0 0 0 0 0 0 0
6 5 9 5 0 0 0 0 0 0 0 0 0 0 0 0 0 0 0 0 0 0 0 0 0 0 0 0 0 0 0 0 1 1 0 0 0 0 0 0 0 0 0 0 0
5 4 6 7 0 0 0 0 0 0 0 0 0 0 0 0 0 0 0 0 0 0 1 0 0 0 0 0 0 0 0 0 24 48 18 0 0 0 0 0 0 0 0 0 0
1 2 7 0 0 0 0 0 0 0 0 0 0 0 0 0 0 0 0 0 0 0 0 0 0 0 3 0 0 0 0 0 6 40 48 21 2 0 0 0 0 0 0 0 0
0 1 2 0 0 0 0 0 0 0 0 0 0 0 0 0 0 0 0 0 0 3 8 0 0 0 0 0 0 1 0 11 55 10 55 37 22 0 0 0 0 0 0 0 0
0 0 0 0 0 0 0 0 0 0 0 0 0 0 0 0 0 0 0 0 6 7 6 0 0 0 0 0 3 0 3 25 41 60 25 4 33 0 0 0 0 0 0 0 0
1 0 0 0 0 0 0 0 0 0 0 0 0 0 0 0 0 0 0 6 2 36 36 7 0 6 0 1 2 38 34 28 11 31 50 25 28 0 0 0 0 0 0 0 0
0 0 0 0 0 0 0 0 0 0 0 0 0 0 0 0 0 4 5 2 16 38 38 35 3 0 0 0 0 7 28 1 11 20 55 53 5 0 0 0 0 0 0 0 0
0 0 0 0 0 0 0 0 0 0 0 0 0 0 0 0 5 11 3 0 29 35 17 28 21 0 0 0 0 2 11 33 49 44 27 12 1 0 0 0 0 0 0 0 0
0 0 0 0 0 0 0 0 0 0 0 0 0 0 0 10 13 12 1 0 2 21 15 14 44 0 0 0 0 38 53 89 63 34 37 11 10 8 0 0 0 0 0 0 0
0 0 0 0 0 0 0 0 0 0 0 0 0 3 6 9 38 15 9 5 14 15 28 16 87 24 0 0 0 0 2 27 33 20 33 51 20 2 12 0 0 0 0 0 0
0 0 0 0 0 0 0 0 0 4 0 1 0 0 0 5 27 9 5 0 12 10 25 13 63 16 11 6 1 0 1 1 24 16 46 67 16 0 20 19 4 0 0 0 0
0 0 0 0 0 0 4 0 1 0 0 0 0 0 7 21 12 12 11 5 18 48 91 79 12 7 16 7 1 10 7 8 49 51 19 18 20 2 5 6 2 6 0 0 0
0 0 1 0 0 0 1 0 1 0 0 0 0 1 7 15 13 0 6 18 18 29 24 32 20 17 22 16 8 23 22 12 7 8 27 0 7 0 0 0 1 0 2 0 0
0 0 1 0 0 1 0 0 0 0 5 0 0 3 5 10 9 4 8 10 19 15 23 12 37 8 10 0 4 14 11 27 29 18 13 4 3 0 0 0 0 0 0 0 0
0 0 2 0 0 0 0 0 0 9 0 0 4 14 7 1 5 7 6 4 6 15 9 10 21 23 5 0 0 8 15 11 9 19 7 10 0 0 0 0 0 0 0 0 0